Time,TemperatureF,DewpointF,PressureIn,WindDirection,WindDirectionDegrees,WindSpeedMPH,WindSpeedGustMPH,Humidity,HourlyPrecipIn,Conditions,Clouds,dailyrainin,SoftwareType,DateUTC
2013-09-02 00:05:00,79.7,73.0,29.76,SW,225,0.0,-999.0,80,-99.99,,,0.00,Acu-Link.com,2013-09-02 05:05:00,
2013-09-02 00:20:00,79.3,72.9,29.77,SW,225,0.0,-999.0,81,-99.99,,,0.00,Acu-Link.com,2013-09-02 05:20:00,
2013-09-02 00:35:00,79.3,73.3,29.77,South,180,0.0,-999.0,82,-99.99,,,0.00,Acu-Link.com,2013-09-02 05:35:00,
2013-09-02 00:50:00,79.3,73.3,29.78,South,180,0.0,-999.0,82,-99.99,,,0.00,Acu-Link.com,2013-09-02 05:50:00,
2013-09-02 01:05:00,78.8,73.2,29.78,WSW,247,0.0,-999.0,83,-99.99,,,0.00,Acu-Link.com,2013-09-02 06:05:00,
2013-09-02 01:21:00,78.6,73.3,29.78,NW,315,0.0,-999.0,84,-99.99,,,0.00,Acu-Link.com,2013-09-02 06:21:00,
2013-09-02 01:36:00,78.3,73.4,29.78,NW,315,0.0,-999.0,85,-99.99,,,0.00,Acu-Link.com,2013-09-02 06:36:00,
2013-09-02 01:51:00,77.9,73.0,29.77,West,270,0.0,-999.0,85,-99.99,,,0.00,Acu-Link.com,2013-09-02 06:51:00,
2013-09-02 02:06:00,77.9,73.4,29.79,NNW,337,0.0,-999.0,86,-99.99,,,0.00,Acu-Link.com,2013-09-02 07:06:00,
2013-09-02 02:21:00,77.5,73.0,29.76,NE,45,0.0,-999.0,86,-99.99,,,0.00,Acu-Link.com,2013-09-02 07:21:00,
2013-09-02 02:37:00,77.5,73.3,29.75,WNW,292,0.0,-999.0,87,-99.99,,,0.00,Acu-Link.com,2013-09-02 07:37:00,
2013-09-02 02:52:00,77.2,73.0,29.74,North,0,0.0,-999.0,87,-99.99,,,0.00,Acu-Link.com,2013-09-02 07:52:00,
2013-09-02 03:08:00,77.0,73.2,29.78,WNW,292,0.0,-999.0,88,-99.99,,,0.00,Acu-Link.com,2013-09-02 08:08:00,
2013-09-02 03:24:00,76.8,73.0,29.76,West,270,0.0,-999.0,88,-99.99,,,0.00,Acu-Link.com,2013-09-02 08:24:00,
2013-09-02 03:39:00,76.6,72.8,29.78,West,270,0.0,-999.0,88,-99.99,,,0.00,Acu-Link.com,2013-09-02 08:39:00,
2013-09-02 03:54:00,76.6,73.1,29.78,SW,225,0.0,-999.0,89,-99.99,,,0.00,Acu-Link.com,2013-09-02 08:54:00,
2013-09-02 04:09:00,76.5,73.0,29.79,NW,315,0.0,-999.0,89,-99.99,,,0.00,Acu-Link.com,2013-09-02 09:09:00,
2013-09-02 04:24:00,76.5,73.0,29.78,WNW,292,0.0,-999.0,89,-99.99,,,0.00,Acu-Link.com,2013-09-02 09:24:00,
2013-09-02 04:39:00,76.5,73.3,29.78,South,180,0.0,-999.0,90,-99.99,,,0.00,Acu-Link.com,2013-09-02 09:39:00,
2013-09-02 04:55:00,76.5,73.3,29.78,SW,225,0.0,-999.0,90,-99.99,,,0.00,Acu-Link.com,2013-09-02 09:55:00,
2013-09-02 05:10:00,76.3,73.1,29.74,WSW,247,0.0,-999.0,90,-99.99,,,0.00,Acu-Link.com,2013-09-02 10:10:00,
2013-09-02 05:25:00,76.6,73.4,29.76,WSW,247,0.0,-999.0,90,-99.99,,,0.00,Acu-Link.com,2013-09-02 10:25:00,
2013-09-02 05:40:00,76.5,73.3,29.75,SSW,202,0.0,-999.0,90,-99.99,,,0.00,Acu-Link.com,2013-09-02 10:40:00,
2013-09-02 05:56:00,76.1,72.9,29.79,NNE,22,0.0,-999.0,90,-99.99,,,0.00,Acu-Link.com,2013-09-02 10:56:00,
2013-09-02 06:11:00,75.9,72.7,29.80,SSW,202,0.0,-999.0,90,-99.99,,,0.00,Acu-Link.com,2013-09-02 11:11:00,
2013-09-02 06:26:00,75.6,72.5,29.80,ENE,67,0.0,-999.0,90,-99.99,,,0.00,Acu-Link.com,2013-09-02 11:26:00,
2013-09-02 06:41:00,75.2,72.1,29.80,WSW,247,0.0,-999.0,90,-99.99,,,0.00,Acu-Link.com,2013-09-02 11:41:00,
2013-09-02 06:56:00,75.0,72.2,29.81,NNW,337,0.0,-999.0,91,-99.99,,,0.00,Acu-Link.com,2013-09-02 11:56:00,
2013-09-02 07:12:00,75.2,72.4,29.78,South,180,0.0,-999.0,91,-99.99,,,0.00,Acu-Link.com,2013-09-02 12:12:00,
2013-09-02 07:27:00,77.2,74.4,29.81,NNE,22,0.0,-999.0,91,-99.99,,,0.00,Acu-Link.com,2013-09-02 12:27:00,
2013-09-02 07:42:00,79.3,74.7,29.82,South,180,0.0,-999.0,86,-99.99,,,0.00,Acu-Link.com,2013-09-02 12:42:00,
2013-09-02 07:57:00,81.9,75.5,29.79,West,270,3.7,-999.0,81,-99.99,,,0.00,Acu-Link.com,2013-09-02 12:57:00,
2013-09-02 08:12:00,81.7,75.3,29.82,WNW,292,4.7,-999.0,81,-99.99,,,0.00,Acu-Link.com,2013-09-02 13:12:00,
2013-09-02 08:28:00,82.0,75.2,29.82,West,270,2.2,-999.0,80,-99.99,,,0.00,Acu-Link.com,2013-09-02 13:28:00,
2013-09-02 08:43:00,82.9,75.7,29.82,WNW,292,2.7,-999.0,79,-99.99,,,0.00,Acu-Link.com,2013-09-02 13:43:00,
2013-09-02 08:58:00,84.4,76.8,29.81,WNW,292,6.3,-999.0,78,-99.99,,,0.00,Acu-Link.com,2013-09-02 13:58:00,
2013-09-02 09:13:00,85.6,77.1,29.81,West,270,5.8,-999.0,76,-99.99,,,0.00,Acu-Link.com,2013-09-02 14:13:00,
2013-09-02 09:28:00,86.5,77.6,29.82,NW,315,6.8,-999.0,75,-99.99,,,0.00,Acu-Link.com,2013-09-02 14:28:00,
2013-09-02 09:44:00,86.9,77.6,29.82,NW,315,6.3,-999.0,74,-99.99,,,0.00,Acu-Link.com,2013-09-02 14:44:00,
2013-09-02 09:59:00,86.9,77.6,29.83,West,270,4.2,-999.0,74,-99.99,,,0.00,Acu-Link.com,2013-09-02 14:59:00,
2013-09-02 10:14:00,87.6,77.4,29.79,NNW,337,3.2,-999.0,72,-99.99,,,0.00,Acu-Link.com,2013-09-02 15:14:00,
2013-09-02 10:29:00,87.1,76.1,29.80,NNW,337,2.7,-999.0,70,-99.99,,,0.00,Acu-Link.com,2013-09-02 15:29:00,
2013-09-02 10:45:00,90.5,76.6,29.82,West,270,4.7,-999.0,64,-99.99,,,0.00,Acu-Link.com,2013-09-02 15:45:00,
2013-09-02 11:00:00,91.2,77.3,29.80,West,270,4.2,-999.0,64,-99.99,,,0.00,Acu-Link.com,2013-09-02 16:00:00,
2013-09-02 11:15:00,89.4,75.6,29.83,NNE,22,2.7,-999.0,64,-99.99,,,0.00,Acu-Link.com,2013-09-02 16:15:00,
2013-09-02 11:30:00,90.7,75.9,29.83,NW,315,3.7,-999.0,62,-99.99,,,0.00,Acu-Link.com,2013-09-02 16:30:00,
2013-09-02 11:45:00,90.5,75.7,29.83,West,270,5.3,-999.0,62,-99.99,,,0.00,Acu-Link.com,2013-09-02 16:45:00,
2013-09-02 12:01:00,92.8,74.8,29.81,WSW,247,3.7,-999.0,56,-99.99,,,0.00,Acu-Link.com,2013-09-02 17:01:00,
2013-09-02 12:16:00,90.0,75.2,29.82,NNW,337,3.7,-999.0,62,-99.99,,,0.00,Acu-Link.com,2013-09-02 17:16:00,
2013-09-02 12:31:00,93.4,74.8,29.81,SW,225,3.2,-999.0,55,-99.99,,,0.00,Acu-Link.com,2013-09-02 17:31:00,
2013-09-02 12:46:00,93.9,75.2,29.82,SW,225,2.7,-999.0,55,-99.99,,,0.00,Acu-Link.com,2013-09-02 17:46:00,
2013-09-02 13:01:00,92.1,73.6,29.84,NNE,22,1.7,-999.0,55,-99.99,,,0.00,Acu-Link.com,2013-09-02 18:01:00,
2013-09-02 13:17:00,93.7,75.0,29.80,NNW,337,3.7,-999.0,55,-99.99,,,0.00,Acu-Link.com,2013-09-02 18:17:00,
2013-09-02 13:32:00,93.6,75.0,29.78,NW,315,4.7,-999.0,55,-99.99,,,0.00,Acu-Link.com,2013-09-02 18:32:00,
2013-09-02 13:47:00,95.2,73.6,29.75,SSE,157,2.2,-999.0,50,-99.99,,,0.00,Acu-Link.com,2013-09-02 18:47:00,
2013-09-02 14:17:00,98.2,74.5,29.76,WNW,292,5.8,-999.0,47,-99.99,,,0.00,Acu-Link.com,2013-09-02 19:17:00,
2013-09-02 14:33:00,96.4,74.1,29.75,SW,225,3.2,-999.0,49,-99.99,,,0.00,Acu-Link.com,2013-09-02 19:33:00,
2013-09-02 14:48:00,96.8,73.8,29.75,NE,45,1.1,-999.0,48,-99.99,,,0.00,Acu-Link.com,2013-09-02 19:48:00,
2013-09-02 15:03:00,97.9,73.5,29.74,West,270,1.1,-999.0,46,-99.99,,,0.00,Acu-Link.com,2013-09-02 20:03:00,
2013-09-02 15:18:00,96.3,72.7,29.73,SSW,202,6.3,-999.0,47,-99.99,,,0.00,Acu-Link.com,2013-09-02 20:18:00,
2013-09-02 15:34:00,97.2,73.6,29.73,West,270,2.2,-999.0,47,-99.99,,,0.00,Acu-Link.com,2013-09-02 20:34:00,
2013-09-02 15:49:00,98.2,75.1,29.72,West,270,8.3,-999.0,48,-99.99,,,0.00,Acu-Link.com,2013-09-02 20:49:00,
2013-09-02 16:04:00,97.2,72.9,29.74,NNW,337,5.3,-999.0,46,-99.99,,,0.00,Acu-Link.com,2013-09-02 21:04:00,
2013-09-02 16:19:00,97.3,73.6,29.69,West,270,3.7,-999.0,47,-99.99,,,0.00,Acu-Link.com,2013-09-02 21:19:00,
2013-09-02 16:35:00,96.8,74.4,29.69,West,270,6.3,-999.0,49,-99.99,,,0.00,Acu-Link.com,2013-09-02 21:35:00,
2013-09-02 16:50:00,97.2,74.2,29.66,WSW,247,3.7,-999.0,48,-99.99,,,0.00,Acu-Link.com,2013-09-02 21:50:00,
2013-09-02 17:05:00,99.5,73.7,29.66,South,180,3.2,-999.0,44,-99.99,,,0.00,Acu-Link.com,2013-09-02 22:05:00,
2013-09-02 17:20:00,101.3,73.9,29.70,SW,225,4.2,-999.0,42,-99.99,,,0.00,Acu-Link.com,2013-09-02 22:20:00,
2013-09-02 17:36:00,99.1,74.0,29.70,SSW,202,3.2,-999.0,45,-99.99,,,0.00,Acu-Link.com,2013-09-02 22:36:00,
2013-09-02 17:51:00,98.6,72.9,29.68,SSW,202,1.7,-999.0,44,-99.99,,,0.00,Acu-Link.com,2013-09-02 22:51:00,
2013-09-02 18:06:00,97.7,73.4,29.70,West,270,2.7,-999.0,46,-99.99,,,0.00,Acu-Link.com,2013-09-02 23:06:00,
2013-09-02 18:21:00,97.7,73.4,29.71,WSW,247,2.2,-999.0,46,-99.99,,,0.00,Acu-Link.com,2013-09-02 23:21:00,
2013-09-02 18:36:00,96.8,73.2,29.67,WNW,292,1.7,-999.0,47,-99.99,,,0.00,Acu-Link.com,2013-09-02 23:36:00,
2013-09-02 18:52:00,94.8,75.0,29.69,NW,315,4.7,-999.0,53,-99.99,,,0.00,Acu-Link.com,2013-09-02 23:52:00,
2013-09-02 19:07:00,91.6,75.2,29.71,SSW,202,2.7,-999.0,59,-99.99,,,0.00,Acu-Link.com,2013-09-03 00:07:00,
2013-09-02 19:22:00,89.8,75.5,29.71,West,270,2.7,-999.0,63,-99.99,,,0.00,Acu-Link.com,2013-09-03 00:22:00,
2013-09-02 19:37:00,88.0,75.6,29.71,West,270,3.2,-999.0,67,-99.99,,,0.00,Acu-Link.com,2013-09-03 00:37:00,
2013-09-02 19:52:00,86.5,75.5,29.68,SSW,202,1.7,-999.0,70,-99.99,,,0.00,Acu-Link.com,2013-09-03 00:52:00,
2013-09-02 20:08:00,86.2,75.7,29.75,NW,315,0.0,-999.0,71,-99.99,,,0.00,Acu-Link.com,2013-09-03 01:08:00,
2013-09-02 20:23:00,85.5,75.4,29.71,SSW,202,0.0,-999.0,72,-99.99,,,0.00,Acu-Link.com,2013-09-03 01:23:00,
2013-09-02 20:38:00,84.7,75.1,29.75,West,270,0.0,-999.0,73,-99.99,,,0.00,Acu-Link.com,2013-09-03 01:38:00,
2013-09-02 20:53:00,84.2,74.6,29.73,WNW,292,3.7,-999.0,73,-99.99,,,0.00,Acu-Link.com,2013-09-03 01:53:00,
2013-09-02 21:08:00,84.0,74.4,29.76,West,270,0.0,-999.0,73,-99.99,,,0.00,Acu-Link.com,2013-09-03 02:08:00,
2013-09-02 21:24:00,83.3,74.1,29.73,WSW,247,1.7,-999.0,74,-99.99,,,0.00,Acu-Link.com,2013-09-03 02:24:00,
2013-09-02 21:39:00,82.9,73.7,29.73,SW,225,1.7,-999.0,74,-99.99,,,0.00,Acu-Link.com,2013-09-03 02:39:00,
2013-09-02 21:54:00,82.6,74.2,29.73,West,270,0.0,-999.0,76,-99.99,,,0.00,Acu-Link.com,2013-09-03 02:54:00,
2013-09-02 22:09:00,82.2,73.9,29.80,SW,225,1.7,-999.0,76,-99.99,,,0.00,Acu-Link.com,2013-09-03 03:09:00,
2013-09-02 22:24:00,82.0,74.1,29.77,NW,315,2.7,-999.0,77,-99.99,,,0.00,Acu-Link.com,2013-09-03 03:24:00,
2013-09-02 22:40:00,81.9,74.0,29.76,SW,225,0.0,-999.0,77,-99.99,,,0.00,Acu-Link.com,2013-09-03 03:40:00,
2013-09-02 22:55:00,81.7,74.2,29.77,SW,225,2.7,-999.0,78,-99.99,,,0.00,Acu-Link.com,2013-09-03 03:55:00,
2013-09-02 23:10:00,81.5,74.0,29.78,West,270,2.7,-999.0,78,-99.99,,,0.00,Acu-Link.com,2013-09-03 04:10:00,
2013-09-02 23:25:00,81.3,74.1,29.81,SW,225,1.1,-999.0,79,-99.99,,,0.00,Acu-Link.com,2013-09-03 04:25:00,
2013-09-02 23:41:00,81.0,74.2,29.75,SW,225,0.0,-999.0,80,-99.99,,,0.00,Acu-Link.com,2013-09-03 04:41:00,
2013-09-02 23:56:00,80.8,74.4,29.76,SSE,157,0.0,-999.0,81,-99.99,,,0.00,Acu-Link.com,2013-09-03 04:56:00,